Hourly Data Report for July 10, 2021

FISHER BRANCH (AUT)
MANITOBA
Current Station Operator: ECCC - MSC

51°05'00.100" N
97°33'16.200" W
253.00 m
50309J6
71442
WSZ

Download Data

Hourly Data (July 2021)
Hourly Data Report for July 10, 2021
TIME
LST
Temp Definition
°C
Dew Point Definition
°C
Rel Hum Definition
%
Precip. Amount Definition
mm

Wind Dir Definition
10's deg

Wind Spd Definition
km/h
Visibility Definition
km
Stn Press Definition
kPa
Hmdx Definition


Wind Chill Definition


Weather Definition


00:00 18.0 12.7 71 0.0 20 5   98.46     LegendNANA
01:00 17.2 13.6 80 0.0 19 8   98.44     LegendNANA
02:00 16.3 13.9 86 0.0 19 6   98.44     LegendNANA
03:00 14.0 11.6 85 0.0 20 4   98.44     LegendNANA
04:00 14.7 13.3 91 0.0 23 5   98.47     LegendNANA
05:00 14.7 13.6 93 0.0 23 3   98.48     LegendNANA
06:00 17.8 15.2 85 0.0 23 6   98.50     LegendNANA
07:00 21.1 16.3 74 0.0 24 5   98.52 26   LegendNANA
08:00 24.1 16.6 63 0.0 22 7   98.55 29   LegendNANA
09:00 27.3 16.1 50 0.0 22 9   98.52 32   LegendNANA
10:00 29.3 14.5 40 0.0 29 10   98.53 33   LegendNANA
11:00 31.1 15.3 39 0.0 29 11   98.51 35   LegendNANA
12:00 32.5 14.1 33 0.0 31 13   98.49 36   LegendNANA
13:00 31.5 13.6 34 0.0 33 13   98.46 35   LegendNANA
14:00 34.2 11.7 26 0.0 31 15   98.44 36   LegendNANA
15:00 33.9 8.9 22 0.0 34 12   98.42 35   LegendNANA
16:00 33.9 7.1 19 0.0 1 13   98.43 34   LegendNANA
17:00 32.6 11.8 28 0.0 4 11   98.43 35   LegendNANA
18:00 31.4 13.0 33 0.0 5 12   98.45 34   LegendNANA
19:00 30.0 12.9 35 0.0 2 4   98.47 33   LegendNANA
20:00 26.7 14.6 48 0.0 3 3   98.48 30   LegendNANA
21:00 22.8 14.3 59 0.0 4 3   98.51 26   LegendNANA
22:00 20.2 14.0 67 0.0 19 3   98.53     LegendNANA
23:00 17.8 13.0 73 0.0 13 2   98.55     LegendNANA

Notes on Data Quality.

Legend

  • E = Estimated
  • M = Missing
  • NA = Not Available*
  • [empty] = Indicates an unobserved value
Date modified: